(20659) = 1999 UE

Discovered at Visnjan on 1999-10-16 by K. Korlevic.

Orbit

Orbit type: Main Belt

Note: WebGL enabled browser required.

epoch2024-03-31.0
epoch JD2460400.5
perihelion date2021-08-20.64339
perihelion JD2459447.14339
argument of perihelion (°)352.33230
ascending node (°)344.87398
inclination (°)0.84886
eccentricity0.1931046
perihelion distance (AU)2.5320161
Tisserand w.r.t. Jupiter3.2
ΔV w.r.t. Earth (km/sec)10.0
semimajor axis (AU)3.1379733
mean anomaly (°)169.03840
mean daily motion (°/day)0.17730870
aphelion distance (AU)3.744
period (years)5.56
P-vector [x]0.92190942
P-vector [y]-0.35464668
P-vector [z]-0.15591266
Q-vector [x]0.38738621
Q-vector [y]0.83989516
Q-vector [z]0.38014213
absolute magnitude14.1
phase slope0.15
uncertainty0
referenceMPEC 2024-E179
observations used1828
oppositions24
arc length (days)12046
first opposition used1991
last opposition used2024
residual rms (arc-secs)0.73
perturbers coarse indicatorM-v
perturbers precise indicator003Ek
first observation date used1991-03-13.0
last observation date used2024-03-05.0
computer nameMPCLINUX
JD of orbit computation2456937.366389
perihelion JD uncertainty (days)6.3507E-05
argument of perihelion uncertainty (°)2.5017E-04
ascending node uncertainty (°)2.4998E-04
inclination uncertainty (°)4.5876E-06
eccentricity uncertainty 4.1170E-08
perihelion distance uncertainty (AU)1.3156E-07
Minimum Orbit Intersection Distances (in AU)
for orbit epoch: 2460400.5, reference: E2024-G02
Mercury2.13537
Venus1.80589
Earth1.52259
Mars1.15174
Jupiter1.63483
Saturn5.49696
Uranus14.699
Neptune26.6173

Observations

1862 total observations over interval: 1991 03 13.17990 – 2024 03 05.199721
These data are available for download (format description).

Date (UT) J2000 RA J2000 Dec Magn Location Ref
1991 03 13.17990 11 02 39.21 +06 06 36.9 20.9 V 691 – Steward Observatory, Kitt Peak-Spacewatch MPS 79016
1991 03 13.20107 11 02 38.25 +06 06 43.3 20.8 V 691 – Steward Observatory, Kitt Peak-Spacewatch MPS 79016
1991 03 13.22224 11 02 37.35 +06 06 48.5 20.9 V 691 – Steward Observatory, Kitt Peak-Spacewatch MPS 79016
1991 03 14.31030 11 01 50.76 +06 11 26.8 20.4 V 691 – Steward Observatory, Kitt Peak-Spacewatch MPS 79016
1991 03 14.31669 11 01 50.47 +06 11 28.7 20.5 V 691 – Steward Observatory, Kitt Peak-Spacewatch MPS 79016
1991 03 14.32411 11 01 50.13 +06 11 30.4 20.6 V 691 – Steward Observatory, Kitt Peak-Spacewatch MPS 79016
1994 12 03.94167 04 34 46.83 +23 16 09.8 18.3 V 098 – Asiago Observatory, Cima Ekar MPS 16598
1994 12 03.96251 04 34 45.26 +23 16 03.9   098 – Asiago Observatory, Cima Ekar MPS 16598
1997 03 08.24792 12 40 37.78 -04 47 08.2   809 – European Southern Observatory, La Silla MPS 16598
1997 03 08.26111 12 40 37.25 -04 47 05.3   809 – European Southern Observatory, La Silla MPS 16598
1997 03 08.27431 12 40 36.70 -04 47 01.5   809 – European Southern Observatory, La Silla MPS 16598
1998 06 24.16994 16 35 27.42 -23 18 08.9 18.4   704 – Lincoln Laboratory ETS, New Mexico MPS 16598
1998 06 24.18825 16 35 26.62 -23 18 04.3 18.4   704 – Lincoln Laboratory ETS, New Mexico MPS 16598
1998 06 24.20653 16 35 25.91 -23 18 04.2 18.6   704 – Lincoln Laboratory ETS, New Mexico MPS 16598
1998 06 24.22481 16 35 24.97 -23 17 59.6 18.6   704 – Lincoln Laboratory ETS, New Mexico MPS 16598
1999 09 05.40411 00 59 48.70 +06 49 29.1 17.8 R 699 – Lowell Observatory-LONEOS MPS 7393
1999 09 05.43479 00 59 47.93 +06 49 24.0   699 – Lowell Observatory-LONEOS MPS 7393
1999 09 05.46551 00 59 47.07 +06 49 20.6   699 – Lowell Observatory-LONEOS MPS 7393
1999 09 30.26953 00 44 22.59 +05 23 31.5 17.2 R 703 – Catalina Sky Survey MPS 7393
1999 09 30.28197 00 44 21.99 +05 23 28.1 17.4 R 703 – Catalina Sky Survey MPS 7393
1999 09 30.29434 00 44 21.39 +05 23 24.8 17.3 R 703 – Catalina Sky Survey MPS 7393
1999 09 30.30675 00 44 20.83 +05 23 21.4 17.3 R 703 – Catalina Sky Survey MPS 7393
1999 10 04.29532 00 41 18.99 +05 05 35.6 17.5   704 – Lincoln Laboratory ETS, New Mexico MPS 7393
1999 10 04.30874 00 41 18.36 +05 05 32.3 17.7   704 – Lincoln Laboratory ETS, New Mexico MPS 7393
1999 10 04.32215 00 41 17.72 +05 05 28.4 18.0   704 – Lincoln Laboratory ETS, New Mexico MPS 7393
1999 10 04.33554 00 41 17.10 +05 05 24.5 17.6   704 – Lincoln Laboratory ETS, New Mexico MPS 7393
1999 10 04.34895 00 41 16.40 +05 05 21.6 18.2   704 – Lincoln Laboratory ETS, New Mexico MPS 7393
1999 10 07.24726 00 39 04.65 +04 52 20.4 17.8   704 – Lincoln Laboratory ETS, New Mexico MPS 6949
1999 10 07.25862 00 39 04.12 +04 52 17.1 18.1   704 – Lincoln Laboratory ETS, New Mexico MPS 6949
1999 10 07.27022 00 39 03.55 +04 52 14.4 18.1   704 – Lincoln Laboratory ETS, New Mexico MPS 6949
1999 10 07.27345 00 39 03.47 +04 52 13.4 17.1 R 703 – Catalina Sky Survey MPS 12026
1999 10 07.28199 00 39 03.03 +04 52 12.1 18.2   704 – Lincoln Laboratory ETS, New Mexico MPS 6949
1999 10 07.28577 00 39 02.90 +04 52 09.5 17.0 R 703 – Catalina Sky Survey MPS 12026
1999 10 07.29360 00 39 02.41 +04 52 11.5 19.2   704 – Lincoln Laboratory ETS, New Mexico MPS 6949
1999 10 07.29798 00 39 02.31 +04 52 06.8 17.0 R 703 – Catalina Sky Survey MPS 12026
1999 10 07.31022 00 39 01.74 +04 52 03.6 17.0 R 703 – Catalina Sky Survey MPS 12026
1999 10 07.31213 00 39 01.61 +04 52 02.9 17.6   704 – Lincoln Laboratory ETS, New Mexico MPS 6949
1999 10 07.32258 00 39 01.12 +04 51 59.8 17.8   704 – Lincoln Laboratory ETS, New Mexico MPS 6949
1999 10 07.33335 00 39 00.58 +04 51 57.6 17.8   704 – Lincoln Laboratory ETS, New Mexico MPS 6949
1999 10 07.34387 00 39 00.14 +04 51 54.4 17.9   704 – Lincoln Laboratory ETS, New Mexico MPS 6949
1999 10 07.35453 00 38 59.62 +04 51 51.5 17.9   704 – Lincoln Laboratory ETS, New Mexico MPS 6949
1999 10 08.20647 00 38 21.43 +04 48 02.2 17.6 R 699 – Lowell Observatory-LONEOS MPS 12026
1999 10 08.23700 00 38 19.96 +04 47 54.3   699 – Lowell Observatory-LONEOS MPS 12026
1999 10 08.26757 00 38 18.59 +04 47 45.5   699 – Lowell Observatory-LONEOS MPS 12026
1999 10 09.17849 00 37 37.78 +04 43 42.8 18.1   704 – Lincoln Laboratory ETS, New Mexico MPS 12026
1999 10 09.19394 00 37 37.06 +04 43 38.1 18.3   704 – Lincoln Laboratory ETS, New Mexico MPS 12026
1999 10 09.20940 00 37 36.34 +04 43 34.6 18.2   704 – Lincoln Laboratory ETS, New Mexico MPS 12026
1999 10 09.22481 00 37 35.63 +04 43 29.9 18.0   704 – Lincoln Laboratory ETS, New Mexico MPS 12026
1999 10 09.24026 00 37 34.92 +04 43 26.2 18.0   704 – Lincoln Laboratory ETS, New Mexico MPS 12026
1999 10 15.35164 00 33 10.00 +04 16 56.7 15.4   704 – Lincoln Laboratory ETS, New Mexico MPS 12026
1999 10 15.36717 00 33 09.36 +04 16 53.4 15.5   704 – Lincoln Laboratory ETS, New Mexico MPS 12026
1999 10 15.38264 00 33 08.67 +04 16 49.7 16.5   704 – Lincoln Laboratory ETS, New Mexico MPS 12026
1999 10 15.39803 00 33 08.06 +04 16 45.9 15.7   704 – Lincoln Laboratory ETS, New Mexico MPS 12026
1999 10 16.79513 00 32 11.06 +04 10 57.8 18.3   120 – Visnjan MPS 6949
1999 10 16.81437 00 32 10.33 +04 10 53.4   120 – Visnjan MPS 6949
1999 10 17.76808 00 31 32.26 +04 07 01.4 18.2   120 – Visnjan MPS 6949
1999 10 17.78508 00 31 31.59 +04 06 56.4   120 – Visnjan MPS 6949
1999 10 19.85318 00 30 11.17 +03 58 49.8 18.4   120 – Visnjan MPS 6949
1999 10 19.86120 00 30 10.88 +03 58 48.6   120 – Visnjan MPS 6949
1999 10 30.18661 00 24 35.06 +03 24 34.9 17.4 R 703 – Catalina Sky Survey MPS 7393
1999 10 30.19865 00 24 34.69 +03 24 33.8 17.3 R 703 – Catalina Sky Survey MPS 7393
1999 10 30.21062 00 24 34.40 +03 24 31.2 17.4 R 703 – Catalina Sky Survey MPS 7393
1999 10 30.22258 00 24 34.05 +03 24 29.4 17.5 R 703 – Catalina Sky Survey MPS 7393
1999 11 06.16688 00 22 01.61 +03 08 47.6 18.3   704 – Lincoln Laboratory ETS, New Mexico MPS 12026
1999 11 06.18317 00 22 01.28 +03 08 46.5 19.1   704 – Lincoln Laboratory ETS, New Mexico MPS 12026
1999 11 06.19951 00 22 00.96 +03 08 44.0 18.8   704 – Lincoln Laboratory ETS, New Mexico MPS 12026
1999 11 06.21586 00 22 00.65 +03 08 42.2 18.6   704 – Lincoln Laboratory ETS, New Mexico MPS 12026
1999 11 06.23226 00 22 00.31 +03 08 40.8 18.5   704 – Lincoln Laboratory ETS, New Mexico MPS 12026
1999 11 09.07232 00 21 17.75 +03 04 14.7 17.9   704 – Lincoln Laboratory ETS, New Mexico MPS 8580
1999 11 09.08670 00 21 17.44 +03 04 13.8 19.4   704 – Lincoln Laboratory ETS, New Mexico MPS 8580
1999 11 09.11547 00 21 17.13 +03 04 10.5 20.0   704 – Lincoln Laboratory ETS, New Mexico MPS 8580
1999 11 09.12986 00 21 16.75 +03 04 10.3 19.0   704 – Lincoln Laboratory ETS, New Mexico MPS 8580
1999 11 27.14301 00 21 18.12 +03 04 31.8 18.1 R 699 – Lowell Observatory-LONEOS MPS 7831
1999 11 27.16846 00 21 18.40 +03 04 35.0   699 – Lowell Observatory-LONEOS MPS 7831
1999 11 27.19391 00 21 18.67 +03 04 37.2   699 – Lowell Observatory-LONEOS MPS 7831
1999 12 07.06924 00 24 32.10 +03 25 01.4 19.2   704 – Lincoln Laboratory ETS, New Mexico MPS 7831
1999 12 07.08550 00 24 32.54 +03 25 04.0 19.2   704 – Lincoln Laboratory ETS, New Mexico MPS 7831
1999 12 07.10180 00 24 32.95 +03 25 06.6 19.2   704 – Lincoln Laboratory ETS, New Mexico MPS 7831
1999 12 07.11787 00 24 33.27 +03 25 09.4 19.4   704 – Lincoln Laboratory ETS, New Mexico MPS 7831
1999 12 07.13467 00 24 33.77 +03 25 11.8 19.6   704 – Lincoln Laboratory ETS, New Mexico MPS 7831
2000 11 29.40676 07 16 25.95 +23 20 28.6 19.0   704 – Lincoln Laboratory ETS, New Mexico MPS 22306
2000 11 29.42166 07 16 25.53 +23 20 28.9 19.5   704 – Lincoln Laboratory ETS, New Mexico MPS 22306
2000 11 29.43828 07 16 24.97 +23 20 30.2 19.7   704 – Lincoln Laboratory ETS, New Mexico MPS 22306
2000 11 29.45311 07 16 24.48 +23 20 31.3 19.2   704 – Lincoln Laboratory ETS, New Mexico MPS 22306
2000 12 30.30147 06 53 20.55 +23 57 36.5 18.5   704 – Lincoln Laboratory ETS, New Mexico MPS 23715
2000 12 30.31711 06 53 19.70 +23 57 37.3 18.7   704 – Lincoln Laboratory ETS, New Mexico MPS 23715
2000 12 30.33233 06 53 18.86 +23 57 38.9 18.6   704 – Lincoln Laboratory ETS, New Mexico MPS 23715
